| time (UTC) | temp C | wind direction | speed KPH | gust KPH | rain 1hr cm | rain 24hr cm | rain mn cm | humidity % | barometer mb |
| 20260507172209 | 8 | 0.0 | 0.0 | 0.00 | 0.00 | 0.00 | 43 | 1008.6 | |
| 20260507171906 | 8 | 0.0 | 0.0 | 0.00 | 0.00 | 0.00 | 43 | 1008.5 | |
| 20260507171604 | 8 | 0.0 | 0.0 | 0.00 | 0.00 | 0.00 | 43 | 1008.5 | |
| 20260507171257 | 8 | 0.0 | 0.0 | 0.00 | 0.00 | 0.00 | 43 | 1008.4 | |
| 20260507170652 | 7 | 0.0 | 0.0 | 0.00 | 0.00 | 0.00 | 44 | 1008.5 | |
| 20260507170351 | 7 | 0.0 | 0.0 | 0.00 | 0.00 | 0.00 | 44 | 1008.5 | |
| 20260507170049 | 7 | 0.0 | 0.0 | 0.00 | 0.00 | 0.00 | 44 | 1008.5 | |
| 20260507165445 | 7 | 0.0 | 0.0 | 0.00 | 0.00 | 0.00 | 44 | 1008.4 | |
| 20260507164539 | 7 | 0.0 | 0.0 | 0.00 | 0.00 | 0.00 | 43 | 1008.4 | |
| 20260507164238 | 7 | 0.0 | 0.0 | 0.00 | 0.00 | 0.00 | 44 | 1008.4 | |
| 20260507163937 | 7 | 0.0 | 0.0 | 0.00 | 0.00 | 0.00 | 44 | 1008.3 | |
| 20260507162727 | 7 | 0.0 | 0.0 | 0.00 | 0.00 | 0.00 | 44 | 1008.4 | |
| 20260507162425 | 7 | 0.0 | 0.0 | 0.00 | 0.00 | 0.00 | 45 | 1008.3 | |
| 20260507162123 | 7 | 0.0 | 0.0 | 0.00 | 0.00 | 0.00 | 44 | 1008.3 | |
| 20260507161822 | 7 | 0.0 | 0.0 | 0.00 | 0.00 | 0.00 | 45 | 1008.2 | |
| 20260507161520 | 7 | 0.0 | 0.0 | 0.00 | 0.00 | 0.00 | 44 | 1008.2 | |
| 20260507161217 | 8 | 0.0 | 0.0 | 0.00 | 0.00 | 0.00 | 42 | 1008.3 | |
| 20260507160915 | 8 | 0.0 | 0.0 | 0.00 | 0.00 | 0.00 | 42 | 1008.2 | |
| 20260507160613 | 8 | 0.0 | 0.0 | 0.00 | 0.00 | 0.00 | 42 | 1008.2 | |
| 20260507160310 | 8 | 0.0 | 0.0 | 0.00 | 0.00 | 0.00 | 42 | 1008.3 | |
| 20260507160009 | 7 | 0.0 | 0.0 | 0.00 | 0.00 | 0.00 | 43 | 1008.2 | |
| 20260507154446 | 7 | 0.0 | 0.0 | 0.00 | 0.00 | 0.00 | 43 | 1008.2 | |
| 20260507153541 | 7 | 0.0 | 0.0 | 0.00 | 0.00 | 0.00 | 42 | 1008.1 | |
| 20260507153240 | 8 | 0.0 | 0.0 | 0.00 | 0.00 | 0.00 | 41 | 1008.1 | |
| 20260507152937 | 8 | 0.0 | 0.0 | 0.00 | 0.00 | 0.00 | 41 | 1008.1 | |
| 20260507152329 | 8 | 0.0 | 0.0 | 0.00 | 0.00 | 0.00 | 41 | 1008.0 | |
| 20260507151724 | 8 | 0.0 | 0.0 | 0.00 | 0.00 | 0.00 | 42 | 1008.0 | |
| 20260507151421 | 7 | 0.0 | 0.0 | 0.00 | 0.00 | 0.00 | 42 | 1008.0 | |
| 20260507151120 | 7 | 0.0 | 0.0 | 0.00 | 0.00 | 0.00 | 43 | 1008.0 | |
| 20260507150819 | 8 | 0.0 | 0.0 | 0.00 | 0.00 | 0.00 | 42 | 1008.0 | |
| 20260507150517 | 8 | 0.0 | 0.0 | 0.00 | 0.00 | 0.00 | 42 | 1008.0 | |
| 20260507145000 | 8 | 0.0 | 0.0 | 0.00 | 0.00 | 0.00 | 42 | 1007.8 | |
| 20260507144657 | 8 | 0.0 | 0.0 | 0.00 | 0.00 | 0.00 | 42 | 1007.8 | |
| 20260507143750 | 7 | 0.0 | 0.0 | 0.00 | 0.00 | 0.00 | 43 | 1007.8 | |
| 20260507142241 | 8 | 0.0 | 0.0 | 0.00 | 0.00 | 0.00 | 42 | 1007.7 | |
| 20260507141940 | 8 | 0.0 | 0.0 | 0.00 | 0.00 | 0.00 | 42 | 1007.6 | |
| 20260507141634 | 8 | 0.0 | 0.0 | 0.00 | 0.00 | 0.00 | 41 | 1007.7 | |
| 20260507141333 | 8 | 0.0 | 0.0 | 0.00 | 0.00 | 0.00 | 40 | 1007.7 | |
| 20260507141031 | 9 | 0.0 | 0.0 | 0.00 | 0.00 | 0.00 | 40 | 1007.6 | |
| 20260507140729 | 8 | 0.0 | 0.0 | 0.00 | 0.00 | 0.00 | 41 | 1007.6 | |
| 20260507140427 | 8 | 0.0 | 0.0 | 0.00 | 0.00 | 0.00 | 41 | 1007.6 | |
| 20260507140125 | 8 | 0.0 | 0.0 | 0.00 | 0.00 | 0.00 | 41 | 1007.6 | |
| 20260507135823 | 8 | 0.0 | 0.0 | 0.00 | 0.00 | 0.00 | 42 | 1007.5 | |
| 20260507135521 | 7 | 0.0 | 0.0 | 0.00 | 0.00 | 0.00 | 43 | 1007.5 | |
| 20260507135219 | 7 | 0.0 | 0.0 | 0.00 | 0.00 | 0.00 | 43 | 1007.6 | |
| 20260507134008 | 7 | 0.0 | 0.0 | 0.00 | 0.00 | 0.00 | 44 | 1007.5 | |
| 20260507133355 | 6 | 0.0 | 0.0 | 0.00 | 0.00 | 0.00 | 45 | 1007.5 | |
| 20260507133050 | 6 | 0.0 | 0.0 | 0.00 | 0.00 | 0.00 | 46 | 1007.5 | |
| 20260507131538 | 7 | 0.0 | 0.0 | 0.00 | 0.00 | 0.00 | 43 | 1007.5 | |
| 20260507130626 | 7 | 0.0 | 0.0 | 0.00 | 0.00 | 0.00 | 44 | 1007.4 | |
| 20260507125719 | 6 | 0.0 | 0.0 | 0.00 | 0.00 | 0.00 | 46 | 1007.3 | |
| 20260507125416 | 6 | 0.0 | 0.0 | 0.00 | 0.00 | 0.00 | 46 | 1007.3 | |
| 20260507124813 | 6 | 0.0 | 0.0 | 0.00 | 0.00 | 0.00 | 44 | 1007.4 | |
| 20260507124208 | 7 | 0.0 | 0.0 | 0.00 | 0.00 | 0.00 | 44 | 1007.3 | |
| 20260507123907 | 7 | 0.0 | 0.0 | 0.00 | 0.00 | 0.00 | 44 | 1007.3 | |
| 20260507123600 | 7 | 0.0 | 0.0 | 0.00 | 0.00 | 0.00 | 44 | 1007.3 | |
| 20260507123257 | 6 | 0.0 | 0.0 | 0.00 | 0.00 | 0.00 | 44 | 1007.3 | |
| 20260507122955 | 7 | 0.0 | 0.0 | 0.00 | 0.00 | 0.00 | 43 | 1007.2 | |
| 20260507122654 | 7 | 0.0 | 0.0 | 0.00 | 0.00 | 0.00 | 43 | 1007.2 | |
| 20260507121748 | 7 | 0.0 | 0.0 | 0.00 | 0.00 | 0.00 | 44 | 1007.2 | |
| 20260507121445 | 6 | 0.0 | 0.0 | 0.00 | 0.00 | 0.00 | 44 | 1007.2 | |
| 20260507120540 | 6 | 0.0 | 0.0 | 0.00 | 0.00 | 0.00 | 45 | 1007.2 | |
| 20260507120238 | 6 | 0.0 | 0.0 | 0.00 | 0.00 | 0.00 | 44 | 1007.2 | |
| 20260507115936 | 7 | 0.0 | 0.0 | 0.00 | 0.00 | 0.00 | 45 | 1007.1 | |
| 20260507115631 | 7 | 0.0 | 0.0 | 0.00 | 0.00 | 0.00 | 44 | 1007.1 | |
| 20260507115330 | 6 | 0.0 | 0.0 | 0.00 | 0.00 | 0.00 | 45 | 1007.1 | |
| 20260507115028 | 6 | 0.0 | 0.0 | 0.00 | 0.00 | 0.00 | 46 | 1007.1 | |
| 20260507114725 | 6 | 0.0 | 0.0 | 0.00 | 0.00 | 0.00 | 46 | 1007.1 | |
| 20260507114122 | 6 | 0.0 | 0.0 | 0.00 | 0.00 | 0.00 | 48 | 1007.0 | |
| 20260507113819 | 5 | 0.0 | 0.0 | 0.00 | 0.00 | 0.00 | 49 | 1007.0 | |
| 20260507113213 | 4 | 0.0 | 0.0 | 0.00 | 0.00 | 0.00 | 50 | 1007.0 | |
| 20260507112306 | 6 | 0.0 | 0.0 | 0.00 | 0.00 | 0.00 | 47 | 1007.0 | |
| 20260507111658 | 5 | 0.0 | 0.0 | 0.00 | 0.00 | 0.00 | 48 | 1006.9 | |
| 20260507111054 | 4 | 0.0 | 0.0 | 0.00 | 0.00 | 0.00 | 50 | 1006.9 | |
| 20260507110751 | 5 | 0.0 | 0.0 | 0.00 | 0.00 | 0.00 | 49 | 1006.9 | |
| 20260507110143 | 4 | 0.0 | 0.0 | 0.00 | 0.00 | 0.00 | 50 | 1006.9 | |
| 20260507105536 | 4 | 0.0 | 0.0 | 0.00 | 0.00 | 0.00 | 50 | 1006.9 | |
| 20260507105234 | 3 | 0.0 | 0.0 | 0.00 | 0.00 | 0.00 | 51 | 1006.9 | |
| 20260507104326 | 5 | 0.0 | 0.0 | 0.00 | 0.00 | 0.00 | 49 | 1006.8 | |
| 20260507103722 | 5 | 0.0 | 0.0 | 0.00 | 0.00 | 0.00 | 48 | 1006.7 | |
| 20260507103420 | 5 | 0.0 | 0.0 | 0.00 | 0.00 | 0.00 | 46 | 1006.8 | |
| 20260507103117 | 6 | 0.0 | 0.0 | 0.00 | 0.00 | 0.00 | 45 | 1006.8 | |
| 20260507102814 | 6 | 0.0 | 0.0 | 0.00 | 0.00 | 0.00 | 44 | 1006.6 | |
| 20260507102512 | 7 | 0.0 | 0.0 | 0.00 | 0.00 | 0.00 | 44 | 1006.7 | |
| 20260507102210 | 6 | 0.0 | 0.0 | 0.00 | 0.00 | 0.00 | 45 | 1006.7 | |
| 20260507101908 | 6 | 0.0 | 0.0 | 0.00 | 0.00 | 0.00 | 46 | 1006.7 | |
| 20260507101604 | 7 | 0.0 | 0.0 | 0.00 | 0.00 | 0.00 | 44 | 1006.5 | |
| 20260507101301 | 7 | 0.0 | 0.0 | 0.00 | 0.00 | 0.00 | 44 | 1006.5 | |
| 20260507100652 | 7 | 0.0 | 0.0 | 0.00 | 0.00 | 0.00 | 43 | 1006.5 | |
| 20260507100349 | 7 | 0.0 | 0.0 | 0.00 | 0.00 | 0.00 | 43 | 1006.5 | |
| 20260507095745 | 8 | 0.0 | 0.0 | 0.00 | 0.00 | 0.00 | 42 | 1006.4 | |
| 20260507095439 | 8 | 0.0 | 0.0 | 0.00 | 0.00 | 0.00 | 42 | 1006.4 | |
| 20260507094836 | 8 | 0.0 | 0.0 | 0.00 | 0.00 | 0.00 | 43 | 1006.3 | |
| 20260507094533 | 8 | 0.0 | 0.0 | 0.00 | 0.00 | 0.00 | 43 | 1006.3 | |
| 20260507094231 | 8 | 0.0 | 0.0 | 0.00 | 0.00 | 0.00 | 43 | 1006.2 | |
| 20260507093928 | 8 | 0.0 | 0.0 | 0.00 | 0.00 | 0.00 | 43 | 1006.2 | |
| 20260507093623 | 7 | 0.0 | 0.0 | 0.00 | 0.00 | 0.00 | 44 | 1006.1 | |
| 20260507093321 | 7 | 0.0 | 0.0 | 0.00 | 0.00 | 0.00 | 45 | 1006.1 | |
| 20260507093013 | 7 | 0.0 | 0.0 | 0.00 | 0.00 | 0.00 | 46 | 1006.0 | |
| 20260507092710 | 6 | 0.0 | 0.0 | 0.00 | 0.00 | 0.00 | 48 | 1006.0 | |
| 20260507092408 | 5 | 0.0 | 0.0 | 0.00 | 0.00 | 0.00 | 49 | 1006.0 | |
| 20260507092105 | 5 | 0.0 | 0.0 | 0.00 | 0.00 | 0.00 | 49 | 1005.8 | |
| 20260507091804 | 5 | 0.0 | 0.0 | 0.00 | 0.00 | 0.00 | 49 | 1005.9 | |
| 20260507091501 | 5 | 0.0 | 0.0 | 0.00 | 0.00 | 0.00 | 49 | 1005.8 | |
| 20260507091159 | 5 | 0.0 | 0.0 | 0.00 | 0.00 | 0.00 | 48 | 1005.8 | |
| 20260507090553 | 5 | 0.0 | 0.0 | 0.00 | 0.00 | 0.00 | 47 | 1005.7 | |
| 20260507085646 | 5 | 0.0 | 0.0 | 0.00 | 0.00 | 0.00 | 48 | 1005.7 | |
| 20260507085345 | 5 | 0.0 | 0.0 | 0.00 | 0.00 | 0.00 | 50 | 1005.6 | |
| 20260507085044 | 4 | 0.0 | 0.0 | 0.00 | 0.00 | 0.00 | 52 | 1005.6 | |
| 20260507084742 | 4 | 0.0 | 0.0 | 0.00 | 0.00 | 0.00 | 51 | 1005.6 | |
| 20260507084440 | 5 | 0.0 | 0.0 | 0.00 | 0.00 | 0.00 | 49 | 1005.6 | |
| 20260507083834 | 5 | 0.0 | 0.0 | 0.00 | 0.00 | 0.00 | 50 | 1005.5 | |
| 20260507083229 | 5 | 0.0 | 0.0 | 0.00 | 0.00 | 0.00 | 50 | 1005.4 | |
| 20260507082625 | 3 | 0.0 | 0.0 | 0.00 | 0.00 | 0.00 | 52 | 1005.3 | |
| 20260507082324 | 3 | 0.0 | 0.0 | 0.00 | 0.00 | 0.00 | 53 | 1005.3 | |
| 20260507081720 | 4 | 0.0 | 0.0 | 0.00 | 0.00 | 0.00 | 50 | 1005.2 | |
| 20260507081418 | 4 | 0.0 | 0.0 | 0.00 | 0.00 | 0.00 | 50 | 1005.1 | |
| 20260507081116 | 5 | 0.0 | 0.0 | 0.00 | 0.00 | 0.00 | 48 | 1005.2 | |
| 20260507080513 | 4 | 0.0 | 0.0 | 0.00 | 0.00 | 0.00 | 50 | 1005.2 | |
| 20260507075604 | 4 | 0.0 | 0.0 | 0.00 | 0.00 | 0.00 | 50 | 1005.0 | |
| 20260507075000 | 5 | 0.0 | 0.0 | 0.00 | 0.00 | 0.00 | 50 | 1005.0 | |
| 20260507074053 | 3 | 0.0 | 0.0 | 0.00 | 0.00 | 0.00 | 52 | 1004.8 | |
| 20260507073144 | 5 | 0.0 | 0.0 | 0.00 | 0.00 | 0.00 | 50 | 1004.9 | |
| 20260507072541 | 3 | 0.0 | 0.0 | 0.00 | 0.00 | 0.00 | 53 | 1004.7 | |
| 20260507072239 | 3 | 0.0 | 0.0 | 0.00 | 0.00 | 0.00 | 54 | 1004.6 | |
| 20260507071937 | 2 | 0.0 | 0.0 | 0.00 | 0.00 | 0.00 | 55 | 1004.6 | |
| 20260507071331 | 2 | 0.0 | 0.0 | 0.00 | 0.00 | 0.00 | 55 | 1004.7 | |
| 20260507071029 | 3 | 0.0 | 0.0 | 0.00 | 0.00 | 0.00 | 54 | 1004.6 | |
| 20260507070425 | 2 | 0.0 | 0.0 | 0.00 | 0.00 | 0.00 | 54 | 1004.6 | |
| 20260507070123 | 3 | 0.0 | 0.0 | 0.00 | 0.00 | 0.00 | 52 | 1004.6 | |
| 20260507065820 | 3 | 0.0 | 0.0 | 0.00 | 0.00 | 0.00 | 52 | 1004.6 | |
| 20260507065518 | 3 | 0.0 | 0.0 | 0.00 | 0.00 | 0.00 | 53 | 1004.6 | |
| 20260507065216 | 3 | 0.0 | 0.0 | 0.00 | 0.00 | 0.00 | 52 | 1004.5 | |
| 20260507064613 | 3 | 0.0 | 0.0 | 0.00 | 0.00 | 0.00 | 54 | 1004.6 | |
| 20260507064310 | 3 | 0.0 | 0.0 | 0.00 | 0.00 | 0.00 | 52 | 1004.5 | |
| 20260507064008 | 3 | 0.0 | 0.0 | 0.00 | 0.00 | 0.00 | 52 | 1004.5 | |
| 20260507063705 | 3 | 0.0 | 0.0 | 0.00 | 0.00 | 0.00 | 53 | 1004.5 | |
| 20260507063404 | 3 | 0.0 | 0.0 | 0.00 | 0.00 | 0.00 | 53 | 1004.5 | |
| 20260507063102 | 4 | 0.0 | 0.0 | 0.00 | 0.00 | 0.00 | 51 | 1004.4 | |
| 20260507062154 | 5 | 0.0 | 0.0 | 0.00 | 0.00 | 0.00 | 48 | 1004.3 | |
| 20260507061550 | 6 | 0.0 | 0.0 | 0.00 | 0.00 | 0.00 | 45 | 1004.2 | |
| 20260507061248 | 6 | 0.0 | 0.0 | 0.00 | 0.00 | 0.00 | 46 | 1004.2 | |
| 20260507060946 | 6 | 0.0 | 0.0 | 0.00 | 0.00 | 0.00 | 47 | 1004.1 | |
| 20260507060341 | 6 | 0.0 | 0.0 | 0.00 | 0.00 | 0.00 | 47 | 1004.0 | |
| 20260507055736 | 6 | 0.0 | 0.0 | 0.00 | 0.00 | 0.00 | 45 | 1004.0 | |
| 20260507055434 | 6 | 0.0 | 0.0 | 0.00 | 0.00 | 0.00 | 46 | 1004.0 | |
| 20260507055131 | 6 | 0.0 | 0.0 | 0.00 | 0.00 | 0.00 | 45 | 1004.0 | |
| 20260507054828 | 6 | 0.0 | 0.0 | 0.00 | 0.00 | 0.00 | 46 | 1004.0 | |
| 20260507054218 | 6 | 0.0 | 0.0 | 0.00 | 0.00 | 0.00 | 46 | 1003.9 | |
| 20260507053612 | 6 | 0.0 | 0.0 | 0.00 | 0.00 | 0.00 | 47 | 1003.9 | |
| 20260507053007 | 5 | 0.0 | 0.0 | 0.00 | 0.00 | 0.00 | 48 | 1003.7 | |
| 20260507052705 | 5 | 0.0 | 0.0 | 0.00 | 0.00 | 0.00 | 48 | 1003.7 | |
| 20260507051745 | 6 | 0.0 | 0.0 | 0.00 | 0.00 | 0.00 | 46 | 1003.7 | |
| 20260507051442 | 6 | 0.0 | 0.0 | 0.00 | 0.00 | 0.00 | 45 | 1003.7 | |
| 20260507051140 | 6 | 0.0 | 0.0 | 0.00 | 0.00 | 0.00 | 46 | 1003.6 | |
| 20260507050837 | 6 | 0.0 | 0.0 | 0.00 | 0.00 | 0.00 | 47 | 1003.6 | |
| 20260507050535 | 6 | 0.0 | 0.0 | 0.00 | 0.00 | 0.00 | 47 | 1003.6 | |
| 20260507050232 | 6 | 0.0 | 0.0 | 0.00 | 0.00 | 0.00 | 47 | 1003.6 | |
| 20260507045623 | 6 | 0.0 | 0.0 | 0.00 | 0.00 | 0.00 | 47 | 1003.5 | |
| 20260507044718 | 6 | 0.0 | 0.0 | 0.00 | 0.00 | 0.00 | 46 | 1003.4 | |
| 20260507044417 | 6 | 0.0 | 0.0 | 0.00 | 0.00 | 0.00 | 45 | 1003.4 | |
| 20260507043813 | 6 | 0.0 | 0.0 | 0.00 | 0.00 | 0.00 | 45 | 1003.3 | |
| 20260507043510 | 6 | 0.0 | 0.0 | 0.00 | 0.00 | 0.00 | 45 | 1003.3 | |
| 20260507042906 | 6 | 0.0 | 0.0 | 0.00 | 0.00 | 0.00 | 46 | 1003.2 | |
| 20260507042559 | 6 | 0.0 | 0.0 | 0.00 | 0.00 | 0.00 | 47 | 1003.2 | |
| 20260507041652 | 5 | 0.0 | 0.0 | 0.00 | 0.00 | 0.00 | 49 | 1003.2 | |
| 20260507041047 | 5 | 0.0 | 0.0 | 0.00 | 0.00 | 0.00 | 50 | 1003.1 | |
| 20260507040745 | 4 | 0.0 | 0.0 | 0.00 | 0.00 | 0.00 | 50 | 1003.1 | |
| 20260507040444 | 5 | 0.0 | 0.0 | 0.00 | 0.00 | 0.00 | 50 | 1002.9 | |
| 20260507040142 | 5 | 0.0 | 0.0 | 0.00 | 0.00 | 0.00 | 51 | 1002.9 | |
| 20260507035538 | 3 | 0.0 | 0.0 | 0.00 | 0.00 | 0.00 | 55 | 1002.9 | |
| 20260507035236 | 3 | 0.0 | 0.0 | 0.00 | 0.00 | 0.00 | 53 | 1002.8 | |
| 20260507034933 | 3 | 0.0 | 0.0 | 0.00 | 0.00 | 0.00 | 54 | 1002.8 | |
| 20260507034328 | 4 | 0.0 | 0.0 | 0.00 | 0.00 | 0.00 | 52 | 1002.7 | |
| 20260507034027 | 3 | 0.0 | 0.0 | 0.00 | 0.00 | 0.00 | 54 | 1002.7 | |
| 20260507033724 | 2 | 0.0 | 0.0 | 0.00 | 0.00 | 0.00 | 56 | 1002.7 | |
| 20260507033422 | 2 | 0.0 | 0.0 | 0.00 | 0.00 | 0.00 | 57 | 1002.7 | |
| 20260507033121 | 3 | 0.0 | 0.0 | 0.00 | 0.00 | 0.00 | 54 | 1002.7 | |
| 20260507032818 | 2 | 0.0 | 0.0 | 0.00 | 0.00 | 0.00 | 56 | 1002.6 | |
| 20260507032211 | 2 | 0.0 | 0.0 | 0.00 | 0.00 | 0.00 | 55 | 1002.7 | |
| 20260507031909 | 3 | 0.0 | 0.0 | 0.00 | 0.00 | 0.00 | 52 | 1002.6 | |
| 20260507031606 | 4 | 0.0 | 0.0 | 0.00 | 0.00 | 0.00 | 51 | 1002.6 | |
| 20260507031304 | 4 | 0.0 | 0.0 | 0.00 | 0.00 | 0.00 | 51 | 1002.7 | |
| 20260507031003 | 4 | 0.0 | 0.0 | 0.00 | 0.00 | 0.00 | 51 | 1002.7 | |
| 20260507030702 | 4 | 0.0 | 0.0 | 0.00 | 0.00 | 0.00 | 51 | 1002.7 | |
| 20260507030058 | 5 | 0.0 | 0.0 | 0.00 | 0.00 | 0.00 | 50 | 1002.5 | |
| 20260507025756 | 5 | 0.0 | 0.0 | 0.00 | 0.00 | 0.00 | 51 | 1002.6 | |
| 20260507025152 | 4 | 0.0 | 0.0 | 0.00 | 0.00 | 0.00 | 51 | 1002.6 | |
| 20260507024850 | 5 | 0.0 | 0.0 | 0.00 | 0.00 | 0.00 | 50 | 1002.6 | |
| 20260507024549 | 5 | 0.0 | 0.0 | 0.00 | 0.00 | 0.00 | 48 | 1002.6 | |
| 20260507024246 | 5 | 0.0 | 0.0 | 0.00 | 0.00 | 0.00 | 49 | 1002.6 | |
| 20260507023643 | 5 | 0.0 | 0.0 | 0.00 | 0.00 | 0.00 | 50 | 1002.6 | |
| 20260507023342 | 5 | 0.0 | 0.0 | 0.00 | 0.00 | 0.00 | 49 | 1002.6 | |
| 20260507023039 | 5 | 0.0 | 0.0 | 0.00 | 0.00 | 0.00 | 49 | 1002.6 | |
| 20260507022738 | 5 | 0.0 | 0.0 | 0.00 | 0.00 | 0.00 | 49 | 1002.6 | |
| 20260507022134 | 4 | 0.0 | 0.0 | 0.00 | 0.00 | 0.00 | 52 | 1002.5 | |
| 20260507021833 | 3 | 0.0 | 0.0 | 0.00 | 0.00 | 0.00 | 53 | 1002.5 | |
| 20260507021530 | 4 | 0.0 | 0.0 | 0.00 | 0.00 | 0.00 | 51 | 1002.5 | |
| 20260507021228 | 5 | 0.0 | 0.0 | 0.00 | 0.00 | 0.00 | 50 | 1002.4 | |
| 20260507020925 | 5 | 0.0 | 0.0 | 0.00 | 0.00 | 0.00 | 50 | 1002.4 | |
| 20260507020616 | 5 | 0.0 | 0.0 | 0.00 | 0.00 | 0.00 | 49 | 1002.3 | |
| 20260507020314 | 5 | 0.0 | 0.0 | 0.00 | 0.00 | 0.00 | 49 | 1002.3 | |
| 20260507020011 | 5 | 0.0 | 0.0 | 0.00 | 0.00 | 0.00 | 48 | 1002.3 | |
| 20260507015710 | 6 | 0.0 | 0.0 | 0.00 | 0.00 | 0.00 | 46 | 1002.4 | |
| 20260507015407 | 6 | 0.0 | 0.0 | 0.00 | 0.00 | 0.00 | 47 | 1002.4 | |
| 20260507015059 | 5 | 0.0 | 0.0 | 0.00 | 0.00 | 0.00 | 48 | 1002.3 | |
| 20260507014757 | 5 | 0.0 | 0.0 | 0.00 | 0.00 | 0.00 | 50 | 1002.3 | |
| 20260507014455 | 4 | 0.0 | 0.0 | 0.00 | 0.00 | 0.00 | 51 | 1002.3 | |
| 20260507013542 | 5 | 0.0 | 0.0 | 0.00 | 0.00 | 0.00 | 49 | 1002.4 | |
| 20260507013239 | 5 | 0.0 | 0.0 | 0.00 | 0.00 | 0.00 | 50 | 1002.3 | |
| 20260507012937 | 5 | 0.0 | 0.0 | 0.00 | 0.00 | 0.00 | 50 | 1002.3 | |
| 20260507012333 | 5 | 0.0 | 0.0 | 0.00 | 0.00 | 0.00 | 52 | 1002.2 | |
| 20260507012031 | 3 | 0.0 | 0.0 | 0.00 | 0.00 | 0.00 | 53 | 1002.2 | |
| 20260507011729 | 4 | 0.0 | 0.0 | 0.00 | 0.00 | 0.00 | 51 | 1002.2 | |
| 20260507011427 | 3 | 0.0 | 0.0 | 0.00 | 0.00 | 0.00 | 53 | 1002.2 | |
| 20260507011126 | 3 | 0.0 | 0.0 | 0.00 | 0.00 | 0.00 | 54 | 1002.2 | |
| 20260507010824 | 2 | 0.0 | 0.0 | 0.00 | 0.00 | 0.00 | 55 | 1002.2 | |
| 20260507010521 | 3 | 0.0 | 0.0 | 0.00 | 0.00 | 0.00 | 55 | 1002.2 | |
| 20260507010218 | 3 | 0.0 | 0.0 | 0.00 | 0.00 | 0.00 | 54 | 1002.1 | |
| 20260507005615 | 4 | 0.0 | 0.0 | 0.00 | 0.00 | 0.00 | 50 | 1002.1 | |
| 20260507005010 | 3 | 0.0 | 0.0 | 0.00 | 0.00 | 0.00 | 53 | 1002.0 | |
| 20260507004708 | 3 | 0.0 | 0.0 | 0.00 | 0.00 | 0.00 | 55 | 1001.9 | |
| 20260507004405 | 2 | 0.0 | 0.0 | 0.00 | 0.00 | 0.00 | 55 | 1001.9 | |
| 20260507003759 | 4 | 0.0 | 0.0 | 0.00 | 0.00 | 0.00 | 51 | 1001.7 | |
| 20260507003457 | 5 | 0.0 | 0.0 | 0.00 | 0.00 | 0.00 | 48 | 1001.7 | |
| 20260507003155 | 5 | 0.0 | 0.0 | 0.00 | 0.00 | 0.00 | 48 | 1001.6 | |
| 20260507002551 | 6 | 0.0 | 0.0 | 0.00 | 0.00 | 0.00 | 45 | 1001.5 | |
| 20260507002248 | 6 | 0.0 | 0.0 | 0.00 | 0.00 | 0.00 | 45 | 1001.6 | |
| 20260507001644 | 6 | 0.0 | 0.0 | 0.00 | 0.00 | 0.00 | 45 | 1001.6 | |
| 20260507001342 | 6 | 0.0 | 0.0 | 0.00 | 0.00 | 0.00 | 46 | 1001.8 | |
| 20260507001040 | 6 | 0.0 | 0.0 | 0.00 | 0.00 | 0.00 | 46 | 1001.8 | |
| 20260507000436 | 5 | 0.0 | 0.0 | 0.00 | 0.00 | 0.00 | 48 | 1001.8 | |
| 20260507000134 | 6 | 0.0 | 0.0 | 0.00 | 0.00 | 0.00 | 47 | 1001.7 | |
| 20260506235832 | 6 | 0.0 | 0.0 | 0.00 | 0.00 | 0.00 | 47 | 1001.7 | |
| 20260506235529 | 6 | 0.0 | 0.0 | 0.00 | 0.00 | 0.00 | 48 | 1001.7 | |
| 20260506235227 | 5 | 0.0 | 0.0 | 0.00 | 0.00 | 0.00 | 47 | 1001.7 | |
| 20260506234925 | 6 | 0.0 | 0.0 | 0.00 | 0.00 | 0.00 | 47 | 1001.6 | |
| 20260506234322 | 5 | 0.0 | 0.0 | 0.00 | 0.00 | 0.00 | 49 | 1001.6 | |
| 20260506233113 | 6 | 0.0 | 0.0 | 0.00 | 0.00 | 0.00 | 47 | 1001.7 | |
| 20260506232810 | 6 | 0.0 | 0.0 | 0.00 | 0.00 | 0.00 | 46 | 1001.7 | |
| 20260506232508 | 7 | 0.0 | 0.0 | 0.00 | 0.00 | 0.00 | 45 | 1001.7 | |
| 20260506232205 | 7 | 0.0 | 0.0 | 0.00 | 0.00 | 0.00 | 45 | 1001.7 | |
| 20260506231902 | 7 | 0.0 | 0.0 | 0.00 | 0.00 | 0.00 | 45 | 1001.7 | |
| 20260506231600 | 7 | 0.0 | 0.0 | 0.00 | 0.00 | 0.00 | 45 | 1001.8 | |
| 20260506231258 | 7 | 0.0 | 0.0 | 0.00 | 0.00 | 0.00 | 44 | 1001.7 | |
| 20260506230655 | 9 | 0.0 | 0.0 | 0.00 | 0.00 | 0.00 | 42 | 1001.7 | |
| 20260506230352 | 9 | 0.0 | 0.0 | 0.00 | 0.00 | 0.00 | 42 | 1001.7 | |
| 20260506230050 | 9 | 0.0 | 0.0 | 0.00 | 0.00 | 0.00 | 42 | 1001.7 | |
| 20260506225748 | 8 | 0.0 | 0.0 | 0.00 | 0.00 | 0.00 | 43 | 1001.7 | |
| 20260506225446 | 9 | 0.0 | 0.0 | 0.00 | 0.00 | 0.00 | 43 | 1001.6 | |
| 20260506225143 | 8 | 0.0 | 0.0 | 0.00 | 0.00 | 0.00 | 43 | 1001.5 | |
| 20260506224539 | 9 | 0.0 | 0.0 | 0.00 | 0.00 | 0.00 | 43 | 1001.4 | |
| 20260506223934 | 9 | 0.0 | 0.0 | 0.00 | 0.00 | 0.00 | 44 | 1001.3 | |
| 20260506223630 | 9 | 0.0 | 0.0 | 0.00 | 0.00 | 0.00 | 45 | 1001.3 | |
| 20260506223328 | 8 | 0.0 | 0.0 | 0.00 | 0.00 | 0.00 | 45 | 1001.2 | |
| 20260506222724 | 8 | 0.0 | 0.0 | 0.00 | 0.00 | 0.00 | 46 | 1001.1 | |
| 20260506222119 | 7 | 0.0 | 0.0 | 0.00 | 0.00 | 0.00 | 48 | 1001.1 | |
| 20260506221816 | 7 | 0.0 | 0.0 | 0.00 | 0.00 | 0.00 | 49 | 1001.0 | |
| 20260506221515 | 7 | 0.0 | 0.0 | 0.00 | 0.00 | 0.00 | 50 | 1000.9 | |
| 20260506221213 | 6 | 0.0 | 0.0 | 0.00 | 0.00 | 0.00 | 50 | 1000.9 | |
| 20260506220608 | 7 | 0.0 | 0.0 | 0.00 | 0.00 | 0.00 | 47 | 1000.9 | |
| 20260506220306 | 8 | 0.0 | 0.0 | 0.00 | 0.00 | 0.00 | 47 | 1000.8 | |
| 20260506220003 | 8 | 0.0 | 0.0 | 0.00 | 0.00 | 0.00 | 46 | 1000.8 | |
| 20260506215653 | 8 | 0.0 | 0.0 | 0.00 | 0.00 | 0.00 | 46 | 1000.8 | |
| 20260506215051 | 10 | 0.0 | 0.0 | 0.00 | 0.00 | 0.00 | 44 | 1000.9 | |
| 20260506214748 | 10 | 0.0 | 0.0 | 0.00 | 0.00 | 0.00 | 44 | 1000.9 | |
| 20260506214445 | 10 | 0.0 | 0.0 | 0.00 | 0.00 | 0.00 | 44 | 1000.9 | |
| 20260506213538 | 9 | 0.0 | 0.0 | 0.00 | 0.00 | 0.00 | 44 | 1000.9 | |
| 20260506213236 | 10 | 0.0 | 0.0 | 0.00 | 0.00 | 0.00 | 44 | 1000.8 | |
| 20260506212934 | 10 | 0.0 | 0.0 | 0.00 | 0.00 | 0.00 | 44 | 1000.8 | |
| 20260506212330 | 10 | 0.0 | 0.0 | 0.00 | 0.00 | 0.00 | 45 | 1000.8 | |
| 20260506212028 | 10 | 0.0 | 0.0 | 0.00 | 0.00 | 0.00 | 45 | 1000.7 | |
| 20260506211726 | 10 | 0.0 | 0.0 | 0.00 | 0.00 | 0.00 | 44 | 1000.7 | |
| 20260506211425 | 10 | 0.0 | 0.0 | 0.00 | 0.00 | 0.00 | 45 | 1000.7 | |
| 20260506211122 | 10 | 0.0 | 0.0 | 0.00 | 0.00 | 0.00 | 45 | 1000.7 | |
| 20260506210821 | 10 | 0.0 | 0.0 | 0.00 | 0.00 | 0.00 | 46 | 1000.8 | |
| 20260506210520 | 9 | 0.0 | 0.0 | 0.00 | 0.00 | 0.00 | 46 | 1000.7 | |
| 20260506205613 | 8 | 0.0 | 0.0 | 0.00 | 0.00 | 0.00 | 46 | 1000.7 | |
| 20260506205008 | 9 | 0.0 | 0.0 | 0.00 | 0.00 | 0.00 | 46 | 1000.5 | |
| 20260506204705 | 9 | 0.0 | 0.0 | 0.00 | 0.00 | 0.00 | 46 | 1000.5 | |
| 20260506204404 | 9 | 0.0 | 0.0 | 0.00 | 0.00 | 0.00 | 46 | 1000.5 | |
| 20260506204101 | 9 | 0.0 | 0.0 | 0.00 | 0.00 | 0.00 | 45 | 1000.6 | |
| 20260506203759 | 10 | 0.0 | 0.0 | 0.00 | 0.00 | 0.00 | 45 | 1000.5 | |
| 20260506203456 | 10 | 0.0 | 0.0 | 0.00 | 0.00 | 0.00 | 45 | 1000.5 | |
| 20260506203154 | 10 | 0.0 | 0.0 | 0.00 | 0.00 | 0.00 | 45 | 1000.5 | |
| 20260506202852 | 10 | 0.0 | 0.0 | 0.00 | 0.00 | 0.00 | 45 | 1000.5 | |
| 20260506202548 | 10 | 0.0 | 0.0 | 0.00 | 0.00 | 0.00 | 45 | 1000.5 | |
| 20260506202247 | 10 | 0.0 | 0.0 | 0.00 | 0.00 | 0.00 | 45 | 1000.5 | |
| 20260506201642 | 10 | 0.0 | 0.0 | 0.00 | 0.00 | 0.00 | 46 | 1000.5 | |
| 20260506201341 | 10 | 0.0 | 0.0 | 0.00 | 0.00 | 0.00 | 46 | 1000.5 | |
| 20260506201039 | 10 | 0.0 | 0.0 | 0.00 | 0.00 | 0.00 | 46 | 1000.5 | |
| 20260506200737 | 10 | 0.0 | 0.0 | 0.00 | 0.00 | 0.00 | 47 | 1000.5 | |
| 20260506200434 | 9 | 0.0 | 0.0 | 0.00 | 0.00 | 0.00 | 47 | 1000.4 | |
| 20260506195830 | 8 | 0.0 | 0.0 | 0.00 | 0.00 | 0.00 | 48 | 1000.4 | |
| 20260506195528 | 8 | 0.0 | 0.0 | 0.00 | 0.00 | 0.00 | 49 | 1000.4 | |
| 20260506195226 | 10 | 0.0 | 0.0 | 0.00 | 0.00 | 0.00 | 46 | 1000.4 | |
| 20260506194617 | 10 | 0.0 | 0.0 | 0.00 | 0.00 | 0.00 | 45 | 1000.4 | |
| 20260506194314 | 10 | 0.0 | 0.0 | 0.00 | 0.00 | 0.00 | 46 | 1000.4 | |
| 20260506194012 | 10 | 0.0 | 0.0 | 0.00 | 0.00 | 0.00 | 45 | 1000.3 | |
| 20260506193106 | 10 | 0.0 | 0.0 | 0.00 | 0.00 | 0.00 | 45 | 1000.1 | |
| 20260506192803 | 10 | 0.0 | 0.0 | 0.00 | 0.00 | 0.00 | 45 | 1000.1 | |
| 20260506192502 | 10 | 0.0 | 0.0 | 0.00 | 0.00 | 0.00 | 45 | 1000.1 | |
| 20260506192200 | 10 | 0.0 | 0.0 | 0.00 | 0.00 | 0.00 | 45 | 1000.2 | |
| 20260506191858 | 10 | 0.0 | 0.0 | 0.00 | 0.00 | 0.00 | 45 | 1000.2 | |
| 20260506191555 | 10 | 0.0 | 0.0 | 0.00 | 0.00 | 0.00 | 45 | 1000.2 | |
| 20260506191252 | 10 | 0.0 | 0.0 | 0.00 | 0.00 | 0.00 | 45 | 1000.2 | |
| 20260506190950 | 10 | 0.0 | 0.0 | 0.00 | 0.00 | 0.00 | 45 | 1000.1 | |
| 20260506190044 | 10 | 0.0 | 0.0 | 0.00 | 0.00 | 0.00 | 45 | 999.9 | |
| 20260506185741 | 10 | 0.0 | 0.0 | 0.00 | 0.00 | 0.00 | 46 | 999.9 | |
| 20260506185137 | 10 | 0.0 | 0.0 | 0.00 | 0.00 | 0.00 | 46 | 999.9 | |
| 20260506184230 | 11 | 0.0 | 0.0 | 0.00 | 0.00 | 0.00 | 45 | 999.8 | |
| 20260506183928 | 11 | 0.0 | 0.0 | 0.00 | 0.00 | 0.00 | 44 | 999.9 | |
| 20260506182719 | 11 | 0.0 | 0.0 | 0.00 | 0.00 | 0.00 | 44 | 999.7 | |
| 20260506182114 | 11 | 0.0 | 0.0 | 0.00 | 0.00 | 0.00 | 44 | 999.7 | |
| 20260506181812 | 11 | 0.0 | 0.0 | 0.00 | 0.00 | 0.00 | 44 | 999.6 | |
| 20260506181510 | 11 | 0.0 | 0.0 | 0.00 | 0.00 | 0.00 | 44 | 999.6 | |
| 20260506181208 | 11 | 0.0 | 0.0 | 0.00 | 0.00 | 0.00 | 44 | 999.6 | |
| 20260506180558 | 11 | 0.0 | 0.0 | 0.00 | 0.00 | 0.00 | 44 | 999.5 | |
| 20260506180256 | 11 | 0.0 | 0.0 | 0.00 | 0.00 | 0.00 | 45 | 999.5 | |
| 20260506175954 | 11 | 0.0 | 0.0 | 0.00 | 0.00 | 0.00 | 45 | 999.4 | |
| 20260506175653 | 11 | 0.0 | 0.0 | 0.00 | 0.00 | 0.00 | 45 | 999.4 | |
| 20260506175048 | 11 | 0.0 | 0.0 | 0.00 | 0.00 | 0.00 | 45 | 999.3 | |
| 20260506174745 | 11 | 0.0 | 0.0 | 0.00 | 0.00 | 0.00 | 45 | 999.3 | |
| 20260506174444 | 11 | 0.0 | 0.0 | 0.00 | 0.00 | 0.00 | 46 | 999.2 | |
| 20260506174141 | 11 | 0.0 | 0.0 | 0.00 | 0.00 | 0.00 | 46 | 999.2 | |
| 20260506173538 | 11 | 0.0 | 0.0 | 0.00 | 0.00 | 0.00 | 45 | 999.2 | |
| 20260506173237 | 11 | 0.0 | 0.0 | 0.00 | 0.00 | 0.00 | 46 | 999.2 | |
| 20260506172934 | 11 | 0.0 | 0.0 | 0.00 | 0.00 | 0.00 | 46 | 999.3 | |
| 20260506172329 | 11 | 0.0 | 0.0 | 0.00 | 0.00 | 0.00 | 46 | 999.3 |